Weather in Tlemcen

Algeria     34°53′00″N   1°19′28″W
temp.,
°C
wind,
m/s
gust,
m/s
humid.,
%
clouds,
%
prec.,
mm/h
press.,
hPa
HPBL,
m
31 july, sat
sat3101:00+29nnw013889 0.0 101412
04:00+27nw3338100 0.0 101466
07:00+27wnw252891 0.0 1014326
10:00+29nw542398 0.0 1014677
13:00+31nw97227 0.0 1014938
16:00+30nw98214 0.0 1013963
19:00+27wnw782499 0.0 1013772
22:00+25sw2327100 0.0 101539
1 august, sun
sun101:00+24sw23235 0.0 101521
04:00+22w233029 0.0 101414
07:00+21sw223080 0.0 101629
10:00+26wnw232192 0.0 1016882
13:00+29nw7518100 0.0 10151154
16:00+28nw6523100 0.0 1014911
19:00+25nw222824 0.0 1013589
22:00+22w1132100 0.0 101514
2 august, mon
mon201:00+22wnw013399 0.0 101412
04:00+19nnw114039 0.0 101411
07:00+21ssw113596 0.0 101412
10:00+25nnw22217 0.0 1014650
13:00+29nnw331852 0.0 10131340
16:00+29nw8521100 0.0 1012987
19:00+25nnw333696 0.0 1012738
22:00+22nw2258100 0.0 1015116
3 august, tue
tue301:00+21wnw1171100 0.0 101541
04:00+19w11844 0.0 101511
07:00+20ene11800 0.0 101647
10:00+25ene23450 0.0 1016709
13:00+32nne54250 0.0 10141502
16:00+31nnw75390 0.0 1013939
19:00+28n43510 0.0 1014671
22:00+24nnw11650 0.0 101669
4 august, wed
wed401:00+23nnw11680 0.0 101512
04:00+21n01753 0.0 101511
07:00+21nnw11810 0.0 101638
10:00+27n11450 0.0 1016505
13:00+34n222118 0.0 10141214
16:00+33nnw64320 0.0 1013777
19:00+29n32390 0.0 1014608
22:00+26nnw004730 0.0 101615